Weather History for Tampa Macdill AFB, FL

Change the Weather History Date:

Friday, March 1, 2013

  Actual Average Record
Temperature  
Mean Temperature 56 °F -  
Max Temperature 62 °F 73 °F 89 °F (1997)
Min Temperature 50 °F 55 °F 46 °F (2014)
Degree Days  
Heating Degree Days 9    
Growing Degree Days 6 (Base 50)    
Moisture  
Dew Point 43 °F    
Average Humidity 59    
Maximum Humidity 77    
Minimum Humidity 48    
Precipitation  
Precipitation 0.00 in - - ()
Sea Level Pressure  
Sea Level Pressure 30.00 in    
Wind  
Wind Speed 10 mph (NNW)    
Max Wind Speed 15 mph    
Max Gust Speed 26 mph    
Visibility 10 miles    
Events      
Averages and records for this station are not official NWS values.
T = Trace of Precipitation, MM = Missing Value Source: NWS Daily Summary

Daily Weather History Graph

Daily Weather History Graph

Search for Another Location

Airport:

Trip Planner

Search our weather history database for the weather conditions in past years. The results will help you decide how hot, cold, wet, or windy it might be!

Date:

Astronomy

Mar. 01, 2013 Rise Set
Actual Time 6:54 AM EST 6:30 PM EST
Civil Twilight 6:30 AM EST 6:54 PM EST
Nautical Twilight 6:03 AM EST 7:21 PM EST
Astronomical Twilight 5:36 AM EST 7:48 PM EST
Moon 10:34 PM EST (3/1) 9:05 AM EST (3/1)
Length of Visible Light 12h 23m
Length of Day
11h 36m
Waning Gibbous, 83% of the Moon is Illuminated
Mar 1
Waning Gibbous
Mar 4
Last Quarter
Mar 11
New
Mar 19
First Quarter
Mar 27
Full

Hourly Weather History & Observations

Time (EST) Temp. Dew Point Humidity Pressure Visibility Wind Dir Wind Speed Gust Speed Precip Events Conditions
12:58 AM 59.0 °F 48.2 °F 67% 29.97 in 10.0 mi NW 11.5 mph - N/A   Clear
1:58 AM 59.0 °F 50.0 °F 72% 29.96 in 10.0 mi NNW 12.7 mph 18.4 mph N/A   Clear
2:58 AM 59.0 °F 48.2 °F 67% 29.96 in 10.0 mi NNW 12.7 mph - N/A   Clear
3:58 AM 57.2 °F 50.0 °F 77% 29.94 in 10.0 mi North 9.2 mph - N/A   Clear
4:58 AM 57.2 °F 48.2 °F 72% 29.94 in 10.0 mi North 6.9 mph - N/A   Clear
5:58 AM 53.6 °F 44.6 °F 72% 29.98 in 10.0 mi NE 5.8 mph - N/A   Clear
6:58 AM 50.0 °F 39.2 °F 66% 29.99 in 10.0 mi NE 5.8 mph - N/A   Clear
7:58 AM 51.8 °F 37.4 °F 58% 30.01 in 10.0 mi NE 5.8 mph - N/A   Clear
8:58 AM 55.4 °F 37.4 °F 51% 30.03 in 10.0 mi NE 6.9 mph - N/A   Partly Cloudy
9:58 AM 57.2 °F 37.4 °F 48% 30.03 in 10.0 mi NE 4.6 mph - N/A   Partly Cloudy
10:58 AM 59.0 °F 41.0 °F 51% 30.04 in 10.0 mi NE 8.1 mph - N/A   Partly Cloudy
11:58 AM 59.0 °F 42.8 °F 55% 30.03 in 10.0 mi Variable 5.8 mph - N/A   Scattered Clouds
12:58 PM 62.6 °F 44.6 °F 52% 30.00 in 10.0 mi NW 10.4 mph - N/A   Scattered Clouds
1:58 PM 62.6 °F 46.4 °F 55% 29.98 in 10.0 mi NNW 10.4 mph - N/A   Scattered Clouds
2:58 PM 62.6 °F 46.4 °F 55% 29.98 in 10.0 mi NNW 13.8 mph 20.7 mph N/A   Partly Cloudy
3:58 PM 62.6 °F 44.6 °F 52% 29.99 in 10.0 mi NNW 11.5 mph 19.6 mph N/A   Clear
4:58 PM 59.0 °F 44.6 °F 59% 29.99 in 10.0 mi NNW 11.5 mph 19.6 mph N/A   Clear
5:58 PM 57.2 °F 44.6 °F 63% 30.00 in 10.0 mi NNW 8.1 mph - N/A   Partly Cloudy
6:58 PM 55.4 °F 41.0 °F 58% 30.01 in 10.0 mi NW 10.4 mph - N/A   Scattered Clouds
7:58 PM 55.4 °F 39.2 °F 54% 30.03 in 10.0 mi NW 10.4 mph - N/A   Overcast
8:58 PM 55.4 °F 41.0 °F 58% 30.03 in 10.0 mi NW 11.5 mph - N/A   Overcast
9:58 PM 55.4 °F 39.2 °F 54% 30.05 in 10.0 mi NW 13.8 mph 20.7 mph N/A   Overcast
10:58 PM 55.4 °F 39.2 °F 54% 30.05 in 10.0 mi NNW 15.0 mph 21.9 mph N/A   Overcast
11:58 PM 55.4 °F 39.2 °F 54% 30.04 in 10.0 mi NNW 13.8 mph 26.5 mph N/A   Mostly Cloudy